This demonstration page uses our WeatherBlox Daily Observations layout. Learn more.

Left ArrowRight Arrow

38.83388, -104.82136

Hourly Observations for May 14, 2022

Temp ( °F °C ) Dew Point ( °F °C ) Humidity (%) Winds ( mph kmh ) Pressure ( in mb ) Visibility ( mi km ) Precip ( " mm )
12:58 am 00:58 Cloudy 60 15.4 1 -17.4 9 9 SW 6 9 29.69 1005 10 16 0.00 0.00
1:58 am 01:58 Cloudy 59 15.1 0 -17.6 9 9 Calm 29.67 1005 10 16 0.00 0.00
2:58 am 02:58 Cloudy 60 15.3 3 -16.2 10 10 NW 9 15 29.66 1004 10 16 0.00 0.00
3:30 am 03:30 Mostly Cloudy 61 16 1 -17 9 9 WNW 16 26 29.65 1004 10 16 0.00 0.00
3:58 am 03:58 Clear 55 13 7 -13.9 14 14 Calm 29.67 1005 10 16 0.00 0.00
4:58 am 04:58 Clear 57 14.1 5 -14.9 12 12 WSW 3 6 29.64 1004 10 16 0.00 0.00
5:58 am 05:58 Sunny 59 14.8 4 -15.4 11 11 W 6 9 29.67 1005 10 16 0.00 0.00
6:58 am 06:58 Sunny 60 15.4 9 -12.9 13 13 Calm 29.72 1007 10 16 0.00 0.00
7:58 am 07:58 undefined 63 17.2 13 -10.6 14 14 NNE 6 9 29.78 1009 10 16 0.00 0.00
8:58 am 08:58 undefined 66 18.7 13 -10.3 13 13 N 13 20 29.81 1010 N/A 0.00 0.00
9:58 am 09:58 Sunny 68 19.8 15 -9.4 13 13 NE 12 19 29.83 1010 10 16 0.00 0.00
10:58 am 10:58 Sunny 69 20.4 16 -9 13 13 SE 8 13 29.85 1011 10 16 0.00 0.00
11:58 am 11:58 Sunny 70 21 15 -9.5 12 12 SSE 14 22 29.83 1010 10 16 0.00 0.00
12:45 pm 12:45 Sunny 72 22 14 -10 11 11 E 12 19 29.82 1010 10 16 0.00 0.00
12:58 pm 12:58 Sunny 74 23.3 16 -8.8 11 11 SE 15 24 29.82 1010 10 16 0.00 0.00
1:12 pm 13:12 Sunny 72 22 14 -10 11 11 S 13 20 29.82 1010 10 16 0.00 0.00
1:58 pm 13:58 Mostly Sunny 72 22.4 15 -9.5 11 11 ESE 12 19 29.81 1010 10 16 0.00 0.00
2:04 pm 14:04 Mostly Sunny 72 22 16 -9 12 12 S 16 26 29.83 1010 10 16 0.00 0.00
2:58 pm 14:58 Partly Cloudy 71 21.9 14 -9.9 11 11 SE 12 19 29.78 1008 10 16 0.00 0.00
3:58 pm 15:58 Mostly Cloudy 71 21.4 13 -10.3 11 11 SSE 14 22 29.77 1008 10 16 0.00 0.00
4:58 pm 16:58 Mostly Cloudy 71 21.8 14 -10 11 11 SSE 12 19 29.74 1007 10 16 0.00 0.00
5:58 pm 17:58 Mostly Cloudy 70 21.3 15 -9.3 12 12 S 9 15 29.73 1007 10 16 0.00 0.00
6:58 pm 18:58 Mostly Cloudy 70 21.3 15 -9.3 12 12 SSW 13 20 29.73 1007 10 16 0.00 0.00
7:58 pm 19:58 Mostly Cloudy 69 20.4 16 -9 13 13 S 13 20 29.71 1006 10 16 0.00 0.00
10:58 pm 22:58 Clear 65 18.3 16 -8.8 15 15 SSW 6 9 29.72 1006 10 16 0.00 0.00
11:58 pm 23:58 undefined N/A N/A N/A undefined N/A N/A N/A 0.00 0.00

Powered by AerisWeather